Frenchville, ME

6:46 PM EDT on March 28, 2017 (GMT -0400)
Northern Aroostook Regional

Weather History for KFVE - December, 2013

Change the Weather History Date:

Thursday, December 5, 2013

  Actual Average Record
Temperature  
Mean Temperature 31 °F 21 °F  
Max Temperature 37 °F 27 °F 45 °F (2012)
Min Temperature 24 °F 15 °F -7 °F (2014)
Degree Days  
Heating Degree Days 34    
Month to date heating degree days 188  
Since 1 July heating degree days 2319  
Cooling Degree Days 0    
Month to date cooling degree days 0  
Year to date cooling degree days 139  
Moisture  
Dew Point 26 °F    
Average Humidity 89    
Maximum Humidity 97    
Minimum Humidity 81    
Precipitation  
Precipitation 0.08 in 0.10 in 0.16 in (2012)
Month to date precipitation 0.21 0.50  
Year to date precipitation 33.31 31.56  
Sea Level Pressure  
Sea Level Pressure 30.02 in    
Wind  
Wind Speed 11 mph (SE)    
Max Wind Speed 22 mph    
Max Gust Speed 28 mph    
Visibility 6 miles    
Events Fog , Rain    
T = Trace of Precipitation, MM = Missing Value Source: NWS Daily Summary

Daily Weather History Graph

Daily Weather History Graph

Search for Another Location

Airport or City:

Trip Planner

Search our weather history database for the weather conditions in past years. The results will help you decide how hot, cold, wet, or windy it might be!

Date:

Astronomy

Dec. 05, 2013 Rise Set
Actual Time 7:04 AM EST 3:43 PM EST
Civil Twilight 6:29 AM EST 4:18 PM EST
Nautical Twilight 5:50 AM EST 4:57 PM EST
Astronomical Twilight 5:13 AM EST 5:34 PM EST
Moon 9:16 AM EST (12/5) 7:06 PM EST (12/5)
Length of Visible Light 9h 49m
Length of Day
8h 39m
Waxing Crescent, 10% of the Moon is Illuminated
Dec 5
Waxing Crescent
Dec 9
First Quarter
Dec 17
Full
Dec 25
Last Quarter
Jan 1
New

Hourly Weather History & Observations

Time (EST) Temp. Windchill Dew Point Humidity Pressure Visibility Wind Dir Wind Speed Gust Speed Precip Events Conditions
12:53 AM 25.0 °F 16.3 °F 21.0 °F 85% 30.18 in 10.0 mi North 8.1 mph - N/A   Overcast
1:53 AM 25.0 °F 17.1 °F 19.9 °F 81% 30.21 in 10.0 mi North 6.9 mph - N/A   Overcast
2:53 AM 25.0 °F 18.1 °F 19.9 °F 81% 30.22 in 10.0 mi NNW 5.8 mph - N/A   Overcast
3:53 AM 25.0 °F - 21.0 °F 85% 30.22 in 10.0 mi Calm Calm - N/A   Overcast
4:53 AM 24.1 °F 17.0 °F 19.9 °F 84% 30.22 in 10.0 mi North 5.8 mph - N/A   Overcast
5:53 AM 24.1 °F - 19.9 °F 84% 30.22 in 10.0 mi Calm Calm - N/A   Overcast
6:53 AM 24.1 °F 19.7 °F 19.9 °F 84% 30.22 in 10.0 mi NE 3.5 mph - N/A   Overcast
7:53 AM 24.1 °F 15.2 °F 21.0 °F 88% 30.22 in 10.0 mi SSE 8.1 mph - N/A   Overcast
8:53 AM 24.1 °F 15.2 °F 21.0 °F 88% 30.21 in 10.0 mi ESE 8.1 mph - N/A   Overcast
9:53 AM 25.0 °F 15.5 °F 21.0 °F 85% 30.20 in 10.0 mi SSE 9.2 mph - N/A   Overcast
10:49 AM 24.8 °F 12.9 °F 21.2 °F 86% 30.12 in 10.0 mi SSE 13.8 mph - N/A   Overcast
10:53 AM 25.0 °F 14.2 °F 21.9 °F 88% 30.15 in 10.0 mi SE 11.5 mph - N/A   Overcast
11:02 AM 25.0 °F 13.6 °F 21.9 °F 88% 30.11 in 10.0 mi SSE 12.7 mph - N/A   Overcast
11:53 AM 26.1 °F 14.0 °F 21.9 °F 84% 30.11 in 10.0 mi ESE 15.0 mph - N/A   Overcast
12:53 PM 26.1 °F 13.6 °F 23.0 °F 88% 30.09 in 10.0 mi SSE 16.1 mph - N/A   Overcast
1:53 PM 27.0 °F 14.7 °F 24.1 °F 89% 30.04 in 10.0 mi SE 16.1 mph - N/A   Overcast
2:50 PM 28.4 °F 18.0 °F 24.8 °F 86% 29.98 in 5.0 mi SE 12.7 mph - 0.01 in Rain Light Freezing Rain
2:53 PM 28.0 °F 16.5 °F 25.0 °F 88% 30.01 in 4.0 mi SE 15.0 mph - 0.01 in Rain Light Freezing Rain
3:04 PM 28.0 °F 16.1 °F 26.1 °F 92% 29.97 in 2.0 mi SE 16.1 mph - 0.04 in Rain Light Freezing Rain
3:09 PM 28.9 °F 17.3 °F 27.0 °F 92% 29.97 in 3.0 mi SSE 16.1 mph - 0.04 in Rain Light Freezing Rain
3:27 PM 28.9 °F 16.5 °F 26.1 °F 89% 29.96 in 10.0 mi SSE 18.4 mph - 0.04 in   Overcast
3:53 PM 28.9 °F 16.9 °F 27.0 °F 92% 29.98 in 10.0 mi SSE 17.3 mph 23.0 mph 0.04 in   Overcast
4:15 PM 28.9 °F 15.8 °F 27.0 °F 92% 29.93 in 10.0 mi SSE 20.7 mph 25.3 mph N/A   Overcast
4:31 PM 30.0 °F 17.5 °F 27.0 °F 88% 29.94 in 7.0 mi SSE 19.6 mph 26.5 mph 0.01 in Rain Light Freezing Rain
4:53 PM 30.0 °F 17.5 °F 28.0 °F 92% 29.96 in 8.0 mi SSE 19.6 mph - 0.01 in Rain Light Freezing Rain
5:17 PM 30.0 °F 18.3 °F 28.0 °F 92% 29.92 in 4.0 mi SSE 17.3 mph - 0.01 in   Overcast
5:53 PM 30.9 °F 19.1 °F 28.9 °F 92% 29.94 in 6.0 mi SSE 18.4 mph - 0.01 in   Overcast
6:39 PM 32.0 °F 20.5 °F 30.0 °F 92% 29.89 in 4.0 mi SSE 18.4 mph 26.5 mph 0.00 in Rain Light Freezing Rain
6:48 PM 32.0 °F 20.5 °F 30.2 °F 93% 29.89 in 2.5 mi SSE 18.4 mph - 0.00 in   Overcast
6:53 PM 32.0 °F 20.8 °F 30.0 °F 92% 29.92 in 2.0 mi SSE 17.3 mph 25.3 mph 0.00 in   Overcast
7:02 PM 32.0 °F 20.8 °F 30.0 °F 92% 29.88 in 1.5 mi SSE 17.3 mph - N/A   Overcast
7:10 PM 32.0 °F 20.1 °F 30.0 °F 92% 29.86 in 1.0 mi SSE 19.6 mph - N/A   Mist
7:17 PM 32.0 °F 21.2 °F 30.0 °F 92% 29.86 in 0.5 mi SSE 16.1 mph - N/A Fog Fog
7:53 PM 32.0 °F 21.2 °F 30.9 °F 96% 29.87 in 0.5 mi SSE 16.1 mph 26.5 mph N/A Fog Fog
8:53 PM 33.1 °F 23.4 °F 32.0 °F 96% 29.86 in 0.2 mi SSE 13.8 mph - N/A Fog Fog
9:53 PM 35.1 °F 25.9 °F 34.0 °F 96% 29.83 in 0.5 mi SSE 13.8 mph - N/A Fog Fog
10:53 PM 36.0 °F 27.5 °F 35.1 °F 97% 29.79 in 0.2 mi SSE 12.7 mph - N/A Fog Fog
11:53 PM 37.0 °F 29.3 °F 36.0 °F 96% 29.78 in 0.2 mi South 11.5 mph 16.1 mph 0.01 in Fog , Rain Light Rain